RH
72 72 71 72 77 84 86 89 89 82 81 79 75 66 58 61 48 35 26 19 16 32 71 66 52 57 58 42 45 58 56 64 65 70 66 71 69 47 51 37 41 42 52 55 48 64 72 24 27 41 37 43 42 37
79 77 70 71 76 75 76 82 83 84 83 81 78 65 48 42 33 33 44 54 55 60 89 44 46 54 61 46 44 60 59 56 61 63 66 60 77 68 60 62 33 52 41 46 46 42 31 35 38 39 39 40 49 60
71 65 72 73 72 68 62 68 68 70 77 79 74 65 43 45 63 68 76 77 84 96 98 81 82 58 55 45 57 63 64 62 66 74 68 68 88 61 71 52 43 37 37 48 52 42 39 44 58 59 80 91 79 71
57 58 67 75 73 60 63 65 77 73 70 69 62 51 53 69 78 84 96 96 95 92 95 91 76 68 66 60 60 60 80 75 82 78 88 95 85 63 69 55 61 50 49 52 54 45 66 60 66 73 84 95 95 91
61 62 60 60 66 77 79 76 80 72 67 66 84 89 87 81 79 85 90 98 98 92 96 88 80 64 63 68 75 74 79 82 86 98 98 86 73 76 68 65 69 45 56 80 88 84 98 91 85 89 97 97 96 95
64 61 50 53 72 80 77 71 69 79 90 84 83 84 90 94 80 82 86 88 98 98 95 92 84 90 81 83 98 98 91 87 95 96 91 86 74 80 89 74 44 56 68 79 96 98 100 97 95 94 99 100 98 98
64 56 57 64 67 70 62 77 94 86 85 82 80 80 86 92 82 73 91 93 96 98 99 94 83 95 95 95 100 99 100 99 98 97 99 86 82 99 94 76 47 68 83 92 85 96 88 94 100 99 89 94 97 99
69 63 68 68 73 70 82 96 96 81 77 79 78 84 85 99 90 92 90 88 91 99 100 89 77 86 93 96 99 99 99 98 98 97 99 98 90 97 93 55 68 86 97 83 92 93 95 100 100 99 99 99 100 99
75 69 71 75 83 82 90 92 88 78 75 75 85 93 98 98 91 94 85 87 94 94 98 97 76 71 84 99 100 99 98 99 99 97 85 89 76 87 62 88 99 100 100 100 100 95 99 99 100 100 99 99 100 99
85 77 77 79 81 84 89 87 84 78 77 91 96 94 96 96 86 88 94 92 97 99 98 97 69 74 83 89 98 94 97 94 92 82 94 100 68 56 86 99 98 99 99 100 100 86 88 100 100 100 100 100 99 99
94 94 92 88 87 82 78 75 80 80 79 94 98 92 96 99 97 99 100 98 99 96 99 98 71 65 71 77 73 81 85 85 82 84 86 74 67 76 98 92 96 87 94 100 100 97 98 99 100 100 99 99 98 97
96 94 98 95 89 84 80 74 73 76 83 99 99 92 99 99 99 98 86 79 85 70 84 86 86 89 96 88 87 99 89 86 80 78 88 76 72 87 97 84 87 82 88 99 100 100 100 100 100 97 96 94 95 96
98 100 97 97 96 91 82 73 67 70 72 93 97 98 99 98 99 89 86 74 76 73 89 96 93 90 98 97 97 99 95 81 69 87 75 60 78 94 93 86 86 82 84 90 92 98 100 100 98 96 97 96 94 96
97 93 93 96 96 94 90 76 84 89 84 96 98 100 96 94 74 60 56 56 65 78 86 89 96 98 99 96 88 91 66 71 85 87 74 60 80 100 88 86 87 83 83 85 86 90 95 98 99 98 99 96 87 88
86 90 96 94 93 92 92 88 90 96 92 98 98 86 76 65 75 84 77 77 77 89 88 99 98 99 85 87 77 71 85 79 68 65 60 85 100 93 85 84 87 86 82 84 85 86 90 93 97 99 100 98 95 96
91 93 87 90 90 93 94 94 96 99 96 99 98 96 85 89 89 98 92 78 92 96 98 99 86 81 79 67 77 76 64 62 58 58 86 100 100 88 82 82 84 87 87 86 87 88 87 89 92 94 98 98 98 98
91 93 84 88 88 91 98 98 98 98 94 100 95 98 98 92 88 91 84 83 98 99 95 94 85 70 63 71 69 56 67 56 71 96 95 96 99 84 81 82 80 81 86 94 92 92 91 94 96 95 93 99 82 53
88 93 94 93 96 96 98 98 96 96 97 83 70 69 98 90 92 90 97 97 99 99 95 91 70 80 79 68 62 58 68 91 95 96 98 100 97 85 89 83 75 68 60 57 64 74 83 90 94 75 58 52 48 44
80 94 96 96 98 97 97 97 84 94 74 53 66 72 82 83 87 80 76 84 94 95 98 89 77 73 59 57 62 71 82 90 94 92 100 99 97 84 78 82 74 55 38 28 29 38 46 49 51 53 51 70 61 42
82 76 86 96 97 96 96 97 94 64 55 61 63 63 65 66 80 64 65 90 92 99 99 100 74 68 75 72 62 72 66 76 69 98 100 100 96 81 82 81 78 53 36 30 27 23 22 24 28 32 39 40 37 32
76 84 93 96 97 94 93 97 92 68 51 50 68 74 69 70 68 84 96 78 93 96 94 96 82 81 52 57 61 60 62 57 56 68 88 99 95 95 97 96 85 60 42 34 30 30 28 26 21 19 21 24 26 27
97 79 80 93 91 93 95 83 96 90 81 53 44 54 66 80 81 78 70 92 71 67 71 71 70 73 61 54 51 55 63 64 62 59 71 87 84 84 91 84 82 70 49 34 33 29 29 26 23 19 19 20 24 25
97 81 85 91 96 98 79 92 95 95 82 68 60 48 45 50 58 74 82 71 68 65 67 68 64 66 65 59 55 58 65 66 65 58 62 75 82 75 77 70 72 70 55 40 32 31 31 30 30 26 20 20 21 24
97 96 83 82 96 86 90 87 78 59 56 63 93 71 47 50 49 61 54 53 62 66 66 64 63 78 76 66 66 64 68 71 71 65 62 76 97 83 67 61 64 67 64 47 37 33 34 35 34 33 26 19 19 22
97 88 87 80 92 90 86 76 60 50 58 49 58 88 96 98 86 63 61 54 53 65 56 49 66 73 74 57 56 65 66 69 68 64 62 73 92 86 74 68 66 65 64 61 52 40 37 37 40 39 35 26 20 19
93 79 77 69 72 77 62 52 65 63 51 58 49 41 69 85 89 87 54 53 59 66 55 58 57 68 77 67 79 69 63 70 74 71 65 68 78 74 66 62 66 68 64 62 60 54 46 42 44 47 47 40 30 22
90 72 54 57 60 64 62 49 36 44 58 61 47 57 74 86 68 81 68 63 64 63 58 52 55 56 49 49 51 57 64 66 66 65 62 63 75 79 77 66 53 58 61 63 64 64 57 51 51 55 58 56 45 29
96 69 79 68 63 57 67 62 60 56 48 34 40 59 85 82 51 58 54 63 64 63 60 56 51 51 55 56 55 56 64 66 73 76 78 86 87 87 86 87 89 82 72 70 71 72 72 72 73 73 72 69 63 50
86 85 90 93 94 66 58 85 68 49 59 52 63 60 59 65 63 62 63 67 54 54 61 58 56 54 55 62 66 64 66 65 72 82 87 91 91 91 93 95 96 92 90 88 86 83 80 82 85 84 85 84 82 80
62 54 63 88 86 75 53 57 60 70 70 69 85 87 85 77 65 58 52 58 59 53 56 58 53 52 52 56 59 67 75 75 71 61 60 72 71 75 87 90 92 92 91 94 94 90 91 92 91 91 91 91 91 91
63 68 61 58 60 50 60 52 55 59 59 71 69 87 82 75 73 65 62 50 49 49 64 63 58 57 61 61 66 70 71 70 71 72 72 67 73 81 82 81 80 88 93 92 90 91 91 92 92 95 94 92 89 89
72 64 61 68 64 58 45 61 67 75 81 95 83 97 87 92 97 79 65 57 48 54 65 69 68 68 73 80 78 75 68 64 66 74 76 79 85 93 97 93 83 80 84 91 96 97 97 95 88 86 85 85 88 91
83 78 75 65 60 55 64 67 52 51 67 76 72 94 100 94 80 68 65 59 57 55 69 81 85 83 84 86 88 89 89 88 85 84 84 85 87 94 90 89 93 82 81 80 81 90 96 97 97 97 97 95 92 88
Wind_Speed
5 5 5 6 7 8 7 8 8 7 5 4 2 2 3 3 4 3 5 5 5 4 6 8 8 7 7 9 4 9 7 4 5 5 3 3 3 3 4 8 7 6 5 8 11 14 15 5 10 16 21 34 39 33
2 1 3 6 8 9 10 10 9 8 6 6 3 1 2 3 4 5 7 6 5 4 3 7 12 12 7 6 6 8 0 6 6 3 2 1 3 3 7 5 4 5 9 10 9 11 32 43 40 47 45 41 42 41
3 3 4 5 5 5 7 9 10 11 11 9 6 4 1 4 5 4 5 6 7 4 2 5 9 12 14 14 11 4 4 4 4 3 2 1 5 3 5 7 13 8 15 11 18 15 32 42 45 45 43 43 39 40
4 4 5 5 6 5 6 9 7 6 6 6 5 3 3 2 2 1 2 2 4 2 1 1 0 6 5 11 18 16 3 5 5 4 3 3 3 7 5 10 14 16 16 15 20 30 46 38 43 45 47 44 42 40
6 4 4 6 8 9 9 8 8 8 8 8 7 5 4 4 4 2 5 5 2 1 1 4 6 6 5 11 16 14 15 9 4 3 4 4 5 8 13 9 8 6 9 8 15 37 27 44 52 52 51 45 37 33
7 4 5 8 9 8 7 7 9 10 10 8 6 5 5 3 3 2 1 3 6 5 2 2 2 2 2 7 10 12 14 13 7 3 4 6 11 5 4 4 9 6 19 27 18 35 37 46 43 43 49 38 27 20
7 5 6 6 6 5 8 8 8 8 6 5 4 4 2 2 5 2 2 3 4 8 2 3 2 2 2 6 7 7 12 6 8 5 7 8 10 8 3 5 6 18 24 26 22 28 26 34 47 42 34 22 9 8
9 8 7 5 5 9 8 7 6 5 3 4 3 3 4 5 8 5 4 4 7 5 2 2 2 2 6 4 5 7 6 10 8 6 5 5 4 7 5 10 11 18 24 25 26 25 25 31 33 31 24 19 13 6
11 9 9 8 9 11 10 8 6 3 2 4 4 3 5 5 4 5 5 6 8 5 2 4 2 1 7 3 4 6 7 4 6 6 5 5 4 6 5 7 12 14 13 24 25 21 22 27 28 29 25 24 23 23
13 11 10 10 11 11 12 10 9 5 3 4 5 3 3 3 7 6 5 4 4 6 7 5 6 3 7 6 4 5 4 2 3 5 4 4 5 8 1 3 8 13 15 18 23 29 29 24 21 22 23 21 21 22
15 15 13 13 13 12 11 11 10 8 5 8 6 3 4 2 7 4 3 4 6 4 6 6 17 9 5 4 3 4 2 2 3 3 3 3 4 7 0 4 8 12 13 11 10 11 11 9 12 15 18 18 19 21
18 18 17 16 14 13 13 13 12 11 7 7 4 4 6 5 5 5 4 4 5 4 6 6 7 10 4 4 3 4 2 3 4 3 2 3 3 4 1 4 7 11 13 12 11 11 12 13 12 13 15 18 19 20
18 18 19 18 17 16 15 14 13 12 12 9 7 4 6 7 8 6 9 5 4 6 9 10 6 9 6 8 5 5 5 4 1 3 3 3 6 4 2 2 5 9 11 12 12 12 13 14 14 15 19 19 21 22
14 17 18 17 17 16 15 14 14 13 9 5 7 6 6 5 6 7 7 6 7 7 14 15 9 5 5 6 3 3 2 3 3 3 4 3 8 6 4 4 4 7 10 12 13 14 14 15 16 17 17 18 23 26
14 17 18 19 18 18 17 14 17 18 10 6 7 6 8 12 7 4 10 6 7 12 18 8 4 5 4 3 3 3 4 4 5 4 1 7 9 9 7 5 4 5 8 11 13 15 16 16 17 18 17 19 22 24
12 15 21 21 21 22 21 21 21 21 7 7 8 5 8 6 11 7 7 12 11 16 15 5 4 3 4 3 5 6 3 5 2 4 5 8 11 11 8 7 6 6 7 9 11 12 14 15 16 17 18 19 19 19
13 17 13 17 22 23 20 26 23 12 8 7 9 13 14 9 9 11 14 13 17 19 4 4 6 5 3 3 4 5 4 2 4 5 6 10 12 12 10 8 8 8 8 8 9 10 12 14 15 15 16 15 15 16
13 11 14 15 18 21 20 26 12 11 11 16 16 17 12 13 7 5 11 16 17 16 10 5 6 4 4 4 4 4 8 4 4 5 8 11 12 12 10 9 9 9 9 9 9 10 10 11 11 13 15 16 17 18
12 9 8 11 19 22 8 13 15 6 17 18 20 15 17 18 16 16 7 16 12 15 8 7 4 4 6 7 9 3 7 9 7 7 9 12 13 13 12 12 11 11 11 11 10 10 9 9 10 12 13 13 13 15
13 10 12 11 6 5 5 6 17 12 10 17 21 23 24 17 11 23 25 15 16 11 7 5 7 12 7 7 5 5 6 9 8 10 12 13 15 15 14 15 14 14 13 12 11 11 11 11 11 11 11 12 13 15
14 15 12 11 8 8 6 5 11 10 19 17 13 25 15 17 23 17 16 24 16 8 6 9 14 15 15 13 9 8 9 9 10 10 14 18 18 15 16 16 16 16 15 14 13 13 12 11 12 13 13 13 14 16
17 15 14 14 5 6 9 10 6 8 10 14 25 23 10 12 15 20 22 18 15 25 26 27 25 22 24 25 23 18 15 11 11 11 12 16 21 20 20 21 21 20 18 16 14 14 13 12 13 14 14 14 15 16
14 15 11 7 11 10 6 9 8 6 6 6 14 12 13 19 24 15 11 18 19 27 28 33 32 30 30 26 23 22 21 17 16 15 17 18 20 20 20 22 22 22 22 20 18 16 15 14 13 13 14 15 17 19
15 11 10 8 13 5 7 9 9 9 8 6 3 9 12 17 20 15 13 24 22 25 33 36 34 27 26 28 26 25 24 21 20 17 18 21 22 23 22 23 24 23 21 21 21 20 18 16 15 15 16 16 17 19
7 10 7 7 7 7 4 5 11 9 8 8 8 4 3 1 4 8 11 20 28 31 36 35 34 33 30 30 27 27 25 25 25 22 22 25 23 23 23 24 25 24 25 25 25 24 22 20 19 17 17 17 18 20
7 12 13 8 8 6 6 5 6 9 9 8 7 6 3 3 3 4 6 22 27 33 38 37 36 34 33 31 23 25 28 27 25 23 23 26 30 31 30 29 30 29 28 26 24 25 24 22 21 20 19 18 19 19
7 8 10 11 10 9 6 11 14 12 9 5 4 5 3 3 4 3 8 10 13 25 29 33 34 32 31 31 30 27 23 22 26 25 22 23 27 28 26 27 30 27 26 26 25 24 23 23 22 21 20 20 19 20
3 10 8 14 15 17 10 5 6 9 8 12 15 11 4 5 4 5 5 15 12 9 16 26 30 29 28 28 25 24 25 22 25 22 16 20 23 20 16 14 14 17 21 21 22 22 21 19 19 20 21 20 20 19
6 7 9 7 8 10 11 4 6 8 6 10 7 10 12 12 11 14 17 18 18 15 7 11 17 20 20 20 20 20 24 27 30 28 29 31 30 28 23 18 19 19 19 23 22 20 19 17 15 13 15 18 18 19
17 16 9 3 4 6 11 11 11 7 7 9 5 6 13 20 24 22 20 17 16 18 13 11 11 15 19 22 23 23 24 24 25 27 32 34 33 26 26 22 18 20 19 19 23 23 23 23 23 22 21 20 20 22
10 14 11 14 10 14 14 15 14 12 12 10 12 10 12 15 20 23 22 19 18 23 15 14 14 15 18 21 24 26 25 24 24 24 25 21 20 22 24 21 15 14 22 23 24 24 24 25 24 24 24 22 21 21
17 18 15 8 10 15 17 10 9 7 6 5 8 9 12 10 8 15 19 17 18 22 19 15 15 16 16 18 20 21 19 20 23 24 24 22 20 20 21 25 21 16 15 20 24 26 26 24 23 23 22 20 21 20
13 16 14 15 6 5 8 8 7 9 10 9 9 8 9 8 8 13 17 16 19 22 20 16 15 16 16 17 17 18 20 20 21 26 26 26 24 22 21 24 24 22 19 16 19 22 24 25 26 25 23 22 20 19
Wind_Direction
124 127 137 155 165 165 158 152 154 167 172 168 149 106 86 57 41 76 93 88 88 90 153 176 158 165 175 187 187 142 149 182 175 203 221 214 236 229 270 256 275 255 263 260 266 274 276 277 292 278 293 306 304 301
172 198 189 188 186 186 189 198 205 198 204 227 220 272 16 89 92 76 78 64 62 92 163 206 212 190 206 193 184 175 215 148 153 179 213 257 225 248 276 285 193 256 232 291 280 276 297 301 291 287 283 275 270 271
181 186 179 188 191 201 205 202 209 219 221 224 230 249 222 123 105 84 61 47 32 37 1 257 249 210 226 211 191 194 205 177 160 167 147 267 250 263 260 256 285 287 280 266 289 275 291 303 306 302 299 292 287 270
186 181 183 200 188 192 188 182 188 189 204 201 193 183 163 154 181 93 15 332 47 51 35 270 106 131 143 221 228 217 192 174 139 161 176 233 245 223 263 286 292 287 300 284 290 296 314 307 311 308 302 294 288 287
201 195 209 204 188 171 169 172 180 175 166 164 165 176 180 192 220 218 262 279 258 113 325 290 287 241 255 236 216 212 211 208 202 151 199 233 241 254 253 272 267 263 331 315 306 313 312 302 308 310 306 300 289 279
206 205 181 166 166 171 167 175 174 162 161 168 183 191 190 176 188 222 186 343 236 246 330 322 289 214 252 206 182 198 208 216 211 187 222 239 239 241 256 258 272 328 325 319 304 309 307 302 310 323 323 311 274 278
197 187 175 172 178 178 159 161 168 165 171 176 190 215 194 165 155 123 62 12 145 173 225 267 244 196 159 135 145 174 189 190 207 229 222 242 244 214 254 257 268 325 321 315 319 327 319 329 325 339 342 351 343 278
197 186 180 173 171 161 165 179 191 169 190 220 226 218 182 189 174 197 210 146 106 175 243 272 270 244 178 167 138 176 166 199 219 230 233 224 226 216 252 248 315 327 326 324 334 333 316 337 351 359 352 359 7 8
198 192 189 188 179 179 189 210 218 199 245 243 202 206 183 204 221 209 198 244 249 226 250 198 238 144 174 154 123 164 171 196 220 222 233 209 215 227 255 311 323 334 327 310 325 330 344 5 6 17 27 39 56 82
207 208 203 208 209 206 212 220 224 233 264 210 175 174 235 215 181 156 166 191 214 214 218 236 218 207 186 172 150 149 189 240 243 209 205 220 255 247 168 336 328 330 334 335 345 349 355 355 7 28 38 53 70 86
209 215 217 217 216 218 221 221 221 216 220 196 194 206 182 167 163 185 183 217 198 240 215 216 219 207 194 194 156 206 189 228 249 144 249 238 248 168 25 359 348 345 353 355 357 347 350 356 31 52 65 75 91 101
206 218 225 228 225 222 224 226 222 213 204 194 173 178 191 197 192 187 197 189 220 240 188 188 199 197 158 164 173 200 236 205 250 126 246 250 131 145 60 11 359 3 13 16 21 27 32 42 54 71 80 87 92 102
218 220 219 222 223 222 223 221 219 211 212 224 185 216 180 205 219 210 186 193 211 198 181 160 156 156 162 190 191 192 215 224 180 223 239 269 154 148 109 50 20 24 35 37 41 52 57 68 76 82 93 99 106 110
219 219 217 225 225 221 218 215 201 200 200 227 198 210 219 190 234 207 195 189 185 165 165 163 156 167 169 174 172 231 190 204 234 234 234 185 179 167 157 106 67 51 56 57 57 63 72 78 82 88 94 107 112 116
234 227 221 221 219 215 213 200 190 196 196 230 222 222 214 232 241 222 195 167 170 159 156 156 143 158 151 181 197 221 204 230 229 237 171 154 164 170 162 133 112 90 78 78 78 79 82 87 91 94 98 107 112 117
233 234 227 223 219 218 211 195 194 201 213 230 232 242 236 244 230 222 191 190 172 156 159 162 154 182 180 208 191 213 233 230 210 207 157 164 168 172 164 146 132 121 102 96 94 93 96 98 99 102 109 115 119 120
245 242 240 228 218 214 206 190 192 195 210 221 221 227 249 263 256 230 202 192 175 160 176 175 185 186 149 207 216 196 223 271 169 160 173 172 172 176 169 157 144 138 129 125 119 116 111 110 108 114 118 119 119 121
242 245 222 212 209 207 202 195 190 209 218 224 226 231 233 236 247 260 205 186 172 182 185 194 148 191 208 210 214 219 218 203 179 183 171 168 171 176 168 167 158 152 149 143 136 127 125 126 127 126 129 132 132 131
244 243 232 213 207 207 208 203 191 230 221 225 224 234 238 244 237 244 250 196 192 189 173 166 204 213 218 221 245 196 191 197 201 186 181 177 178 182 177 175 169 163 156 146 140 138 139 140 141 139 139 138 141 141
223 229 246 235 219 206 245 219 187 219 224 222 223 222 227 239 243 225 234 214 205 200 194 202 208 210 212 230 244 228 214 199 204 172 188 190 188 189 189 185 179 174 168 161 156 152 149 148 149 150 151 154 155 153
214 220 231 225 236 225 267 239 184 207 216 230 234 217 221 225 233 227 211 215 204 220 229 223 231 221 229 244 260 245 225 233 236 225 207 195 192 185 186 187 188 185 181 176 170 166 161 164 164 163 161 164 165 163
210 209 214 235 234 234 241 245 252 193 200 213 212 222 227 219 221 222 221 205 219 221 227 232 239 239 243 245 251 257 254 237 235 234 220 207 192 190 192 192 192 192 190 188 184 180 176 174 172 171 169 168 169 170
203 198 199 219 206 215 237 213 224 220 210 220 208 207 221 225 226 209 212 219 225 224 224 227 233 238 244 251 251 251 242 242 233 231 223 210 203 201 199 199 199 197 194 192 191 190 188 183 179 179 177 175 175 175
197 181 186 210 207 220 191 198 212 224 228 219 276 215 227 217 210 210 235 231 224 220 222 229 229 225 234 243 239 242 236 232 227 226 223 210 200 203 205 204 203 202 202 202 198 196 194 192 189 185 185 185 184 185
185 196 191 216 233 194 218 195 198 209 226 247 239 281 318 190 215 215 225 230 223 219 228 233 225 223 224 235 237 237 236 227 222 224 224 212 202 202 202 204 205 205 203 202 203 202 200 198 197 195 193 192 192 192
208 200 190 205 192 193 204 215 213 208 211 221 248 254 208 205 261 251 236 234 222 219 223 223 226 223 222 227 222 231 230 226 222 221 225 215 210 209 206 200 201 205 206 208 209 207 205 204 204 201 199 197 197 199
199 198 195 214 209 200 215 226 217 209 220 220 212 208 234 255 250 271 303 299 238 221 226 226 225 225 229 233 235 236 230 231 228 228 230 221 215 213 218 219 214 212 209 208 206 207 210 209 207 206 205 205 205 205
267 198 180 199 217 228 229 237 222 213 218 228 210 203 259 214 234 256 345 348 317 253 232 228 229 234 238 238 237 229 218 213 210 213 212 205 204 201 204 203 206 212 216 212 207 201 198 203 208 211 211 212 210 209
215 201 185 184 202 223 224 238 221 222 226 226 223 216 210 238 274 301 310 298 288 284 241 207 208 213 213 213 216 213 213 208 197 195 196 196 196 199 193 193 198 200 198 199 200 198 196 198 201 204 205 212 214 214
219 222 230 195 204 222 224 215 246 258 296 316 303 290 283 277 280 282 277 287 294 282 263 240 221 210 204 201 199 195 196 204 214 221 212 210 211 202 192 192 198 203 201 196 193 193 196 200 203 203 205 208 211 213
200 197 213 225 240 251 261 268 287 295 296 295 294 281 280 292 296 279 277 264 265 268 253 230 212 203 201 202 200 197 198 203 206 211 217 224 215 204 203 200 202 213 211 203 203 205 208 210 211 213 215 218 220 223
203 210 211 215 224 234 248 269 275 271 276 280 289 268 272 280 284 288 269 258 243 246 234 217 212 208 202 201 205 211 214 213 202 200 202 206 210 210 214 208 200 198 207 216 215 212 213 213 215 217 220 225 230 233
203 194 210 214 213 222 228 221 245 263 247 245 249 251 253 255 259 274 270 248 234 236 228 213 201 198 198 202 208 212 216 215 212 211 211 214 217 213 208 208 204 200 202 210 217 220 221 222 223 223 225 226 228 231